Location: Staunton
(38.1490°N, 79.0720°W)
Time: 14:47:28
(UTC-04:00)

ISS - Pass Details

Date: 18 July 2017
Orbit: 400 x 408 km, 51.6° (Epoch: 21 July)

Event Time Altitude Azimuth Distance (km) Brightness Sun altitude
Exits shadow 01:39:30 11° 20° (NNE) 1,395 -0.3 -30.7°
Drops below altitude 10° 01:39:41 10° 23° (NNE) 1,448 -0.2 -30.7°
Sets 01:42:10 0° 42° (NE) 2,314 0.7 -30.7°
